Elkins, WV

2:25 AM EDT on September 30, 2016 (GMT -0400)
Elkins-Randolph County

Weather History for KEKN - August, 2014

Change the Weather History Date:

Wednesday, August 13, 2014

  Actual Average Record
Temperature  
Mean Temperature 60 °F 70 °F  
Max Temperature 68 °F 81 °F 91 °F (1944)
Min Temperature 52 °F 59 °F 39 °F (1930)
Degree Days  
Heating Degree Days 5 0  
Month to date heating degree days 5 0  
Since 1 June heating degree days 52 67  
Since 1 July heating degree days 38 12  
Cooling Degree Days 0 5  
Month to date cooling degree days 39 65  
Year to date cooling degree days 363 346  
Since 1 June cooling degree days 327 323  
Growing Degree Days 12 (Base 50)    
Moisture  
Dew Point 56 °F    
Average Humidity 78    
Maximum Humidity 93    
Minimum Humidity 63    
Precipitation  
Precipitation T in 0.13 in 1.65 in (2013)
Month to date precipitation 1.92 1.73  
Year to date precipitation 27.06 30.70  
Snow  
Snow 0.00 in - - ()
Month to date snowfall 0.0  
Since 1 September snowfall 92.3  
Snow Depth 0.00 in    
Sea Level Pressure  
Sea Level Pressure 29.97 in    
Wind  
Wind Speed 6 mph (WNW)    
Max Wind Speed 15 mph    
Max Gust Speed 19 mph    
Visibility 10 miles    
Events Rain    
T = Trace of Precipitation, MM = Missing Value Source: NWS Daily Summary

Daily Weather History Graph

Daily Weather History Graph

Search for Another Location

Airport or City:

Trip Planner

Search our weather history database for the weather conditions in past years. The results will help you decide how hot, cold, wet, or windy it might be!

Date:

Astronomy

Aug. 13, 2014 Rise Set
Actual Time 6:31 AM EDT 8:16 PM EDT
Civil Twilight 6:02 AM EDT 8:45 PM EDT
Nautical Twilight 5:27 AM EDT 9:19 PM EDT
Astronomical Twilight 4:50 AM EDT 9:56 PM EDT
Moon 10:03 PM EDT (8/13) 9:55 AM EDT (8/13)
Length of Visible Light 14h 42m
Length of Day
13h 45m
Waning Gibbous, 88% of the Moon is Illuminated
Aug 13
Waning Gibbous
Aug 17
Last Quarter
Aug 25
New
Sep 2
First Quarter
Sep 8
Full

Hourly Weather History & Observations

Time (EDT) Temp. Dew Point Humidity Pressure Visibility Wind Dir Wind Speed Gust Speed Precip Events Conditions
12:51 AM 66.0 °F 59.0 °F 78% 29.91 in 10.0 mi WNW 9.2 mph - N/A   Mostly Cloudy
1:51 AM 64.9 °F 57.9 °F 78% 29.90 in 10.0 mi West 4.6 mph - N/A   Mostly Cloudy
2:05 AM 64.0 °F 57.9 °F 80% 29.93 in 10.0 mi WNW 5.8 mph - N/A   Mostly Cloudy
2:34 AM 64.0 °F 57.0 °F 78% 29.92 in 10.0 mi West 8.1 mph - N/A   Mostly Cloudy
2:51 AM 63.0 °F 57.0 °F 81% 29.90 in 10.0 mi WNW 6.9 mph - N/A   Mostly Cloudy
3:32 AM 63.0 °F 57.0 °F 81% 29.92 in 10.0 mi WNW 9.2 mph - N/A   Mostly Cloudy
3:51 AM 63.0 °F 57.0 °F 81% 29.89 in 10.0 mi WNW 10.4 mph - N/A   Mostly Cloudy
4:51 AM 62.6 °F 55.4 °F 77% 29.91 in 10.0 mi West 6.9 mph - N/A   Overcast
5:06 AM 62.1 °F 55.9 °F 80% 29.91 in 10.0 mi West 3.5 mph - N/A   Overcast
5:49 AM 60.8 °F 55.4 °F 82% 29.92 in 10.0 mi WNW 8.1 mph - N/A   Overcast
5:51 AM 61.0 °F 55.0 °F 81% 29.88 in 10.0 mi WNW 8.1 mph - N/A   Overcast
6:10 AM 61.0 °F 55.0 °F 81% 29.92 in 10.0 mi NW 5.8 mph - N/A   Overcast
6:51 AM 61.0 °F 55.0 °F 81% 29.92 in 10.0 mi WNW 5.8 mph - 0.00 in Rain Light Rain
7:51 AM 61.0 °F 55.0 °F 81% 29.94 in 10.0 mi West 4.6 mph - 0.00 in   Overcast
10:51 AM 60.8 °F 57.2 °F 88% 29.99 in 9.0 mi West 3.5 mph - N/A Rain Light Rain
11:27 AM 62.1 °F 57.0 °F 84% 30.00 in 10.0 mi WNW 8.1 mph - 0.00 in   Overcast
11:51 AM 63.0 °F 57.9 °F 84% 29.99 in 7.0 mi West 5.8 mph - 0.00 in Rain Light Rain
12:51 PM 64.0 °F 57.0 °F 78% 29.99 in 10.0 mi West 9.2 mph - 0.00 in   Overcast
1:15 PM 64.0 °F 57.9 °F 80% 30.00 in 10.0 mi WNW 8.1 mph - 0.00 in Rain Light Rain
1:51 PM 66.9 °F 59.0 °F 76% 29.98 in 10.0 mi WNW 10.4 mph - 0.00 in   Mostly Cloudy
2:37 PM 66.0 °F 57.9 °F 75% 30.00 in 10.0 mi NW 11.5 mph - 0.00 in   Overcast
2:51 PM 66.0 °F 57.0 °F 73% 29.99 in 10.0 mi NW 10.4 mph - 0.00 in   Overcast
3:21 PM 64.0 °F 55.9 °F 75% 30.00 in 10.0 mi NW 12.7 mph - N/A   Overcast
3:39 PM 64.0 °F 55.9 °F 75% 30.00 in 10.0 mi WNW 11.5 mph - N/A   Overcast
3:51 PM 64.9 °F 55.9 °F 73% 29.99 in 10.0 mi WNW 13.8 mph - N/A   Overcast
4:08 PM 62.1 °F 55.9 °F 80% 30.01 in 8.0 mi NW 11.5 mph 18.4 mph 0.00 in Rain Light Rain
4:44 PM 64.0 °F 55.9 °F 75% 30.01 in 10.0 mi West 11.5 mph - 0.00 in   Overcast
4:51 PM 64.4 °F 55.4 °F 73% 30.02 in 10.0 mi WNW 10.4 mph - N/A   Overcast
5:51 PM 64.9 °F 54.0 °F 68% 30.01 in 10.0 mi WNW 9.2 mph - N/A   Scattered Clouds
6:51 PM 66.0 °F 54.0 °F 65% 30.00 in 10.0 mi WNW 8.1 mph - N/A   Scattered Clouds
7:51 PM 64.0 °F 54.0 °F 70% 30.01 in 10.0 mi West 3.5 mph - N/A   Mostly Cloudy
8:51 PM 61.0 °F 55.0 °F 81% 30.03 in 10.0 mi Calm Calm - N/A   Overcast
9:51 PM 57.9 °F 54.0 °F 87% 30.05 in 10.0 mi Calm Calm - N/A   Scattered Clouds
10:51 PM 55.9 °F 54.0 °F 93% 30.05 in 6.0 mi Calm Calm - N/A   Clear